Weather History for Branson, MO

Change the Weather History Date:

Friday, March 29, 2013

  Actual Average (KHRO) Record (KHRO)
Temperature  
Mean Temperature 56 °F 53 °F  
Max Temperature 64 °F 65 °F 85 °F (1963)
Min Temperature 48 °F 41 °F 22 °F (1964)
Degree Days  
Heating Degree Days 9 13  
Month to date heating degree days 484  
Since 1 July heating degree days 3656  
Cooling Degree Days 0 0  
Month to date cooling degree days 0  
Year to date cooling degree days 0  
Growing Degree Days 6 (Base 50)    
Moisture  
Dew Point 46 °F    
Average Humidity 73    
Maximum Humidity 100    
Minimum Humidity 52    
Precipitation  
Precipitation 0.00 in 0.14 in 4.26 in (1988)
Month to date precipitation 3.51  
Year to date precipitation 8.71  
Snow  
Snow 0.00 in 0.00 in 0.60 in (1975)
Month to date snowfall 2.0  
Since 1 July snowfall 11.2  
Snow Depth -    
Sea Level Pressure  
Sea Level Pressure 30.16 in    
Wind  
Wind Speed 5 mph (SE)    
Max Wind Speed 12 mph    
Max Gust Speed 16 mph    
Visibility 9 miles    
Events Rain    
T = Trace of Precipitation, MM = Missing Value Source: NWS Daily Summary

Daily Weather History Graph

Daily Weather History Graph

Search for Another Location

Airport:

Trip Planner

Search our weather history database for the weather conditions in past years. The results will help you decide how hot, cold, wet, or windy it might be!

Date:

Astronomy

Mar. 29, 2013 Rise Set
Actual Time 7:02 AM CDT 7:32 PM CDT
Civil Twilight 6:36 AM CDT 7:58 PM CDT
Nautical Twilight 6:06 AM CDT 8:29 PM CDT
Astronomical Twilight 5:35 AM CDT 9:00 PM CDT
Moon 10:27 PM CDT (3/29) 8:16 AM CDT (3/29)
Length of Visible Light 13h 21m
Length of Day
12h 29m
Waning Gibbous, 93% of the Moon is Illuminated
Mar 29
Waning Gibbous
Apr 2
Last Quarter
Apr 10
New
Apr 18
First Quarter
Apr 25
Full

Hourly Weather History & Observations

Time (CDT) Temp. Dew Point Humidity Pressure Visibility Wind Dir Wind Speed Gust Speed Precip Events Conditions
12:15 AM 57.2 °F 42.8 °F 59% 30.18 in 10.0 mi South 5.8 mph - N/A   Overcast
12:35 AM 57.2 °F 42.8 °F 59% 30.17 in 10.0 mi SSE 5.8 mph - N/A   Overcast
12:55 AM 57.2 °F 42.8 °F 59% 30.16 in 10.0 mi South 6.9 mph - N/A   Mostly Cloudy
1:15 AM 57.2 °F 42.8 °F 59% 30.17 in 10.0 mi South 5.8 mph - N/A   Mostly Cloudy
1:35 AM 55.4 °F 44.6 °F 67% 30.17 in 10.0 mi South 3.5 mph - N/A   Scattered Clouds
1:55 AM 55.4 °F 44.6 °F 67% 30.17 in 10.0 mi South 5.8 mph - N/A   Mostly Cloudy
2:35 AM 55.4 °F 44.6 °F 67% 30.16 in 10.0 mi South 3.5 mph - N/A   Overcast
2:55 AM 55.4 °F 44.6 °F 67% 30.16 in 10.0 mi Calm Calm - N/A   Mostly Cloudy
3:15 AM 55.4 °F 44.6 °F 67% 30.15 in 10.0 mi SSW 3.5 mph - N/A   Partly Cloudy
3:35 AM 55.4 °F 44.6 °F 67% 30.15 in 10.0 mi SSW 3.5 mph - N/A   Scattered Clouds
3:55 AM 57.2 °F 46.4 °F 67% 30.14 in 10.0 mi Calm Calm - N/A   Mostly Cloudy
4:15 AM 53.6 °F 46.4 °F 77% 30.15 in 10.0 mi Calm Calm - N/A   Overcast
4:35 AM 50.0 °F 44.6 °F 82% 30.15 in 10.0 mi Calm Calm - N/A   Overcast
4:55 AM 50.0 °F 46.4 °F 87% 30.14 in 9.0 mi Calm Calm - N/A Rain Light Rain
5:15 AM 51.8 °F 44.6 °F 76% 30.14 in 9.0 mi Calm Calm - N/A   Overcast
5:35 AM 50.0 °F 46.4 °F 87% 30.15 in 10.0 mi North 11.5 mph 16.1 mph N/A   Mostly Cloudy
5:55 AM 50.0 °F 44.6 °F 82% 30.16 in 10.0 mi North 6.9 mph - N/A   Overcast
6:15 AM 48.2 °F 44.6 °F 87% 30.17 in 8.0 mi North 3.5 mph - N/A Rain Light Rain
6:35 AM 50.0 °F 46.4 °F 87% 30.18 in 7.0 mi NE 4.6 mph - N/A Rain Light Rain
6:50 AM 50.0 °F 46.4 °F 87% 30.18 in 5.0 mi NE 3.5 mph - N/A Rain Light Rain
7:50 AM 48.2 °F 48.2 °F 100% 30.20 in 4.0 mi ENE 4.6 mph - N/A Rain Light Rain
8:45 AM 48.2 °F 48.2 °F 100% 30.22 in 2.0 mi Calm Calm - N/A Rain Light Rain
9:55 AM 48.2 °F 48.2 °F 100% 30.21 in 3.0 mi SSE 6.9 mph - N/A Rain Light Rain
10:45 AM 50.0 °F 50.0 °F 100% 30.21 in 5.0 mi SSE 4.6 mph - N/A Rain Light Rain
11:45 AM 53.6 °F 50.0 °F 88% 30.20 in 10.0 mi SE 4.6 mph - N/A   Mostly Cloudy
12:50 PM 57.2 °F 51.8 °F 82% 30.19 in 10.0 mi East 8.1 mph - N/A   Mostly Cloudy
1:55 PM 59.0 °F 50.0 °F 72% 30.19 in 10.0 mi SE 5.8 mph - N/A   Mostly Cloudy
2:45 PM 60.8 °F 50.0 °F 68% 30.16 in 10.0 mi ESE 4.6 mph - N/A   Scattered Clouds
3:45 PM 62.6 °F 48.2 °F 59% 30.15 in 10.0 mi East 8.1 mph - N/A   Scattered Clouds
4:45 PM 64.4 °F 46.4 °F 52% 30.14 in 10.0 mi ESE 8.1 mph - N/A   Mostly Cloudy
5:45 PM 62.6 °F 46.4 °F 55% 30.15 in 10.0 mi East 5.8 mph - N/A   Mostly Cloudy
6:55 PM 62.6 °F 48.2 °F 59% 30.15 in 10.0 mi ESE 6.9 mph - N/A   Mostly Cloudy
7:55 PM 59.0 °F 46.4 °F 63% 30.14 in 10.0 mi ESE 6.9 mph - N/A   Overcast
8:45 PM 59.0 °F 46.4 °F 63% 30.15 in 10.0 mi ESE 6.9 mph - N/A   Overcast
9:15 PM 57.2 °F 46.4 °F 67% 30.15 in 10.0 mi ESE 8.1 mph - N/A   Overcast
9:35 PM 57.2 °F 46.4 °F 67% 30.15 in 10.0 mi ESE 6.9 mph - N/A   Overcast
9:55 PM 57.2 °F 46.4 °F 67% 30.16 in 10.0 mi ESE 6.9 mph - N/A   Overcast
10:15 PM 57.2 °F 46.4 °F 67% 30.16 in 10.0 mi East 6.9 mph - N/A   Overcast
10:35 PM 57.2 °F 48.2 °F 72% 30.16 in 10.0 mi SE 9.2 mph - N/A   Overcast
10:55 PM 55.4 °F 46.4 °F 72% 30.16 in 10.0 mi ESE 8.1 mph - N/A   Overcast
11:15 PM 55.4 °F 46.4 °F 72% 30.16 in 10.0 mi SE 9.2 mph - N/A   Overcast
11:35 PM 55.4 °F 46.4 °F 72% 30.16 in 10.0 mi SE 10.4 mph - N/A   Overcast
11:55 PM 55.4 °F 48.2 °F 77% 30.15 in 10.0 mi SE 10.4 mph - N/A   Overcast